Accueil
METAR-TAF:

METAR-TAF

Aéroports :

Fairford, Angleterre

latitude: 51-41N, longitude: 001-47W, altitude: 87 m

Observation

Le bulletin a été fait il y a 24 minutes, à 22:31 UTC
Vent 3 kt de nord/nord-ouest
Température 13°C
Humidité 67%
Pression 1022 hPa
Visibilité 10 km ou plus
Nuages épars à une hauteur de 3200 ft

METAR: EGVA 202231Z AUTO 33003KT 9999 SCT032 13/07 A3017 RMK AO2 SLP218 $

Heure: 23:55 (22:55 UTC)


TAF: absent

Observations et prévisions météorologiques de plus de 4000 aéroports (messages METAR et TAF).

Les stations disponibles sont représentées par des disques jaunes et rouges sur la carte.

Passer la souris dessus pour voir le nom de la station.

Cliquer dessus pour voir les observations et prévisions météorologiques.

Pour changer de carte: cliquez sur les boutons verts avec une croix noire pour zoomer, sur le bouton vert avec un tiret pour effectuer un zoom arrière, ou sur les flèches vertes pour les cartes adjacentes.


METAR-TAF: